x

9442396 - La Push, Wa (lapw1) Weather Station

1:36 - Tue 1st Sep 2015 All times are PDT. -7 hours from GMT.

  • Wind
    6mph, 10mph gusts
  • Sea Temp 55°f
  • Luft Temp 58°f
  • Sea Pressure 1010.9mb
  • 9442396 - La Push, Wa
  • 9442396 - La Push, Wa

More Historic Weather Station data

Upgrade to MSW Pro to gain access to the past 30 days of data for over 8000 Wavebouys and Weather Stations around the globe.

Join Pro

Comparision Forecast

View Surf forecast
   
Di 09/01 1:36 6 10 mph 1010.9mb 55f 58f
1:30 8 11 mph 1010.9mb 55f 58f
1:24 8 10 mph 1010.8mb 55f 59f
1:18 8 10 mph 1010.9mb 55f 59f
1:12 6 8 mph 1010.8mb 55f 60f
1:06 6 10 mph 1010.7mb 55f 59f
1:00 8 13 mph 1010.8mb 55f 59f
12:36 10 16 mph 1010.7mb 55f 60f
12:30 13 20 mph 1010.7mb 55f 59f
12:24 10 18 mph 1010.7mb 55f 59f
12:18 13 18 mph 1010.7mb 55f 59f
12:12 9 15 mph 1010.7mb 55f 59f
12:06 10 16 mph 1010.8mb 55f 59f
12:00 13 17 mph 1010.8mb 55f 58f
Mo 08/31 11:36 15 20 mph 1010.6mb 55f 58f
11:30 15 18 mph 1010.6mb 56f 58f
11:24 14 21 mph 1010.6mb 56f 59f
11:18 18 23 mph 1010.6mb 56f 59f
11:12 14 23 mph 1010.5mb 56f 59f
11:06 11 21 mph 1010.6mb 56f 59f
11:00 11 22 mph 1010.6mb 57f 59f
10:36 11 20 mph 1010.8mb 58f 59f
10:30 13 22 mph 1010.8mb 58f 60f
10:24 13 22 mph 1010.8mb 58f 60f
10:18 11 18 mph 1010.9mb 58f 60f
10:12 10 18 mph 1010.8mb 58f 60f
10:06 14 21 mph 1010.9mb 58f 60f
10:00 11 18 mph 1010.9mb 58f 60f
9:36 14 20 mph 1010.9mb 58f 61f
9:30 16 24 mph 1010.9mb 58f 61f
9:24 17 23 mph 1010.9mb 58f 60f
9:18 13 21 mph 1011mb 58f 60f
9:12 10 20 mph 1011.1mb 58f 60f
9:06 13 20 mph 1011mb 58f 60f
9:00 9 21 mph 1011.1mb 58f 60f
8:36 10 14 mph 1011.2mb 58f 60f
8:30 9 17 mph 1011.1mb 58f 59f
8:24 13 16 mph 1011.1mb 58f 59f
8:18 13 15 mph 1011.1mb 58f 59f
8:12 8 13 mph 1011.2mb 58f 58f
8:06 13 15 mph 1011.2mb 58f 58f
8:00 11 16 mph 1011.2mb 58f 58f
7:36 13 20 mph 1011.4mb 58f 58f
7:30 15 23 mph 1011.4mb 58f 59f
7:24 16 23 mph 1011.5mb 58f 59f
7:18 10 16 mph 1011.6mb 58f 60f
7:12 14 17 mph 1011.6mb 57f 59f
7:06 14 18 mph 1011.6mb 57f 60f
7:00 13 21 mph 1011.6mb 57f 60f
6:36 14 21 mph 1011.7mb 56f 60f
6:30 13 18 mph 1011.6mb 55f 60f
6:24 9 22 mph 1011.7mb 55f 60f
6:18 13 20 mph 1011.7mb 55f 60f
6:12 14 22 mph 1011.8mb 55f 60f
6:06 10 16 mph 1011.9mb 55f 60f
6:00 9 16 mph 1011.9mb 55f 60f
5:36 14 20 mph 1012.1mb 55f 59f
5:30 15 20 mph 1012.1mb 54f 59f
5:24 14 18 mph 1012.2mb 54f 59f
5:18 14 20 mph 1012.2mb 54f 60f
5:12 13 20 mph 1012.2mb 54f 60f
5:06 13 21 mph 1012.2mb 55f 60f
5:00 14 18 mph 1012.2mb 55f 60f
4:36  -  mph 1012.3mb 54f 60f
3:36 11 15 mph 1012.6mb 54f 59f
3:30 11 18 mph 1012.6mb 54f 60f
3:24 10 17 mph 1012.6mb 54f 60f
3:18 13 17 mph 1012.7mb 54f 60f
3:12 10 17 mph 1012.6mb 54f 60f
3:06 10 16 mph 1012.7mb 54f 60f
3:00 9 17 mph 1012.7mb 54f 60f
2:36 15 20 mph 1012.8mb 54f 59f
2:30 13 18 mph 1012.9mb 54f 59f
2:24 13 17 mph 1013.1mb 54f 59f
2:18 11 18 mph 1013.1mb 54f 59f
2:12 14 20 mph 1013.2mb 54f 59f
2:06 13 22 mph 1013mb 54f 59f
2:00 14 18 mph 1013.1mb 54f 59f
1:36 13 18 mph 1013.1mb 55f 60f
1:30 11 22 mph 1013mb 54f 59f
1:24 11 20 mph 1013mb 54f 59f
1:18 11 18 mph 1013mb 54f 59f
1:12 13 21 mph 1013mb 54f 60f
1:06 16 20 mph 1013mb 55f 59f
1:00 13 18 mph 1013.1mb 55f 59f
12:36 13 17 mph 1013.1mb 55f 58f
12:30 13 18 mph 1013.1mb 55f 59f
12:24 15 20 mph 1013mb 55f 59f
12:18 14 20 mph 1013mb 55f 59f
12:12 14 17 mph 1013mb 55f 59f
12:06 16 20 mph 1012.9mb 55f 59f
12:00 17 22 mph 1012.9mb 55f 59f
11:36 15 21 mph 1012.9mb 55f 59f
11:30 16 20 mph 1012.8mb 55f 59f
11:24 14 22 mph 1012.9mb 55f 59f
11:18 14 20 mph 1012.9mb 55f 59f
11:12 14 17 mph 1012.9mb 55f 59f
11:06 13 18 mph 1012.9mb 55f 59f
11:00 17 22 mph 1012.9mb 56f 59f
10:36 15 21 mph - 56f 59f
10:30 14 22 mph - 56f 59f
10:24 14 21 mph - 56f 58f
10:18 13 18 mph - 56f 59f
10:12 14 21 mph - 56f 58f
10:06 13 18 mph - 56f 59f
10:00 14 18 mph - 56f 59f
9:36 16 18 mph 1012.6mb 58f 58f
9:30 14 20 mph 1012.5mb 58f 58f
9:24 11 18 mph 1012.5mb 58f 59f
9:18 14 17 mph 1012.5mb 59f 59f
9:12 14 20 mph 1012.4mb 59f 59f
9:06 14 20 mph 1012.4mb 59f 59f
9:00 14 20 mph 1012.4mb 59f 58f
Fr 08/28 10:36 7 9 mph 1014mb 49f 59f
10:30 7 11 mph 1014mb 49f 59f
10:24 7 11 mph 1014.2mb 49f 59f
10:18 6 10 mph 1014.1mb 49f 59f
10:12 6 11 mph 1014mb 49f 58f
10:06 6 8 mph 1014.2mb 49f 59f
10:00 6 9 mph 1014.1mb 49f 59f
9:54 6 8 mph 1014.3mb 49f 59f
9:48 6 8 mph 1014.2mb 49f 59f